• Em Portugal
  • Lista de países
  • Para 7 dias
  • Temperatura da água
  • Mapas de satélite
  • Mapa do tempo
  • Widgets de tempo
  • user-avatar
    Iniciar Sessão

    Previsão horária em Pokhara

    Hoje, 17 Dezembro, Domingo

    Tempo Temperatura Precipitação Vento Pressão Humidade
    00:00 +14°C° 0 mm 2 m/s 687 mmHg 29%
    01:00 +14°C° 0 mm 2 m/s 687 mmHg 27%
    02:00 +14°C° 0 mm 2 m/s 687 mmHg 26%
    03:00 +14°C° 0 mm 2 m/s 686 mmHg 25%
    04:00 +14°C° 0 mm 2 m/s 686 mmHg 23%
    05:00 +14°C° 0 mm 2 m/s 687 mmHg 22%
    06:00 +14°C° 0 mm 2 m/s 686 mmHg 19%
    07:00 +16°C° 0 mm 2 m/s 687 mmHg 19%
    08:00 +18°C° 0 mm 1 m/s 687 mmHg 19%
    09:00 +20°C° 0 mm 1 m/s 688 mmHg 18%
    10:00 +22°C° 0 mm 1 m/s 688 mmHg 17%
    11:00 +24°C° 0 mm 2 m/s 688 mmHg 16%
    12:00 +25°C° 0 mm 2 m/s 688 mmHg 15%
    13:00 +25°C° 0 mm 2 m/s 688 mmHg 17%
    14:00 +24°C° 0 mm 2 m/s 687 mmHg 19%
    15:00 +24°C° 0 mm 2 m/s 687 mmHg 21%
    16:00 +21°C° 0 mm 2 m/s 686 mmHg 27%
    17:00 +18°C° 0 mm 2 m/s 686 mmHg 34%
    18:00 +16°C° 0 mm 2 m/s 686 mmHg 41%
    19:00 +15°C° 0 mm 2 m/s 686 mmHg 38%
    20:00 +15°C° 0 mm 2 m/s 687 mmHg 36%
    21:00 +15°C° 0 mm 2 m/s 687 mmHg 34%
    22:00 +15°C° 0 mm 2 m/s 687 mmHg 31%
    23:00 +15°C° 0 mm 2 m/s 687 mmHg 29%

    Amanhã, 18 Dezembro, Segunda-feira

    Tempo Temperatura Precipitação Vento Pressão Humidade
    00:00 +15°C° 0 mm 2 m/s 687 mmHg 27%
    01:00 +15°C° 0 mm 2 m/s 687 mmHg 25%
    02:00 +14°C° 0 mm 2 m/s 686 mmHg 24%
    03:00 +14°C° 0 mm 2 m/s 686 mmHg 22%
    04:00 +14°C° 0 mm 2 m/s 686 mmHg 21%
    05:00 +14°C° 0 mm 2 m/s 686 mmHg 20%
    06:00 +14°C° 0 mm 2 m/s 686 mmHg 19%
    07:00 +16°C° 0 mm 2 m/s 687 mmHg 18%
    08:00 +19°C° 0 mm 1 m/s 688 mmHg 18%
    09:00 +21°C° 0 mm 1 m/s 688 mmHg 18%
    10:00 +22°C° 0 mm 1 m/s 688 mmHg 18%
    11:00 +24°C° 0 mm 2 m/s 688 mmHg 18%
    12:00 +25°C° 0 mm 2 m/s 689 mmHg 18%
    13:00 +25°C° 0 mm 2 m/s 688 mmHg 20%
    14:00 +25°C° 0 mm 2 m/s 687 mmHg 23%
    15:00 +25°C° 0 mm 2 m/s 687 mmHg 25%
    16:00 +23°C° 0 mm 2 m/s 687 mmHg 31%
    17:00 +19°C° 0 mm 2 m/s 686 mmHg 37%
    18:00 +17°C° 0 mm 2 m/s 686 mmHg 43%
    19:00 +16°C° 0 mm 2 m/s 687 mmHg 41%
    20:00 +16°C° 0 mm 2 m/s 687 mmHg 39%
    21:00 +16°C° 0 mm 2 m/s 687 mmHg 37%
    22:00 +16°C° 0 mm 2 m/s 687 mmHg 36%
    23:00 +15°C° 0 mm 2 m/s 687 mmHg 34%

    Depois de amanhã, 19 Dezembro, Terça-feira

    Tempo Temperatura Precipitação Vento Pressão Humidade
    00:00 +15°C° 0 mm 2 m/s 687 mmHg 32%
    01:00 +15°C° 0 mm 2 m/s 687 mmHg 31%
    02:00 +15°C° 0 mm 2 m/s 687 mmHg 29%
    03:00 +15°C° 0 mm 2 m/s 687 mmHg 28%
    04:00 +15°C° 0 mm 2 m/s 686 mmHg 27%
    05:00 +15°C° 0 mm 2 m/s 686 mmHg 25%
    06:00 +16°C° 0 mm 2 m/s 686 mmHg 24%
    07:00 +17°C° 0 mm 2 m/s 687 mmHg 24%
    08:00 +19°C° 0 mm 1 m/s 688 mmHg 24%
    09:00 +21°C° 0 mm 1 m/s 689 mmHg 23%
    10:00 +22°C° 0 mm 1 m/s 689 mmHg 23%
    11:00 +24°C° 0 mm 2 m/s 689 mmHg 23%
    12:00 +25°C° 0 mm 2 m/s 689 mmHg 22%
    13:00 +25°C° 0 mm 2 m/s 688 mmHg 25%
    14:00 +25°C° 0 mm 2 m/s 687 mmHg 27%
    15:00 +25°C° 0 mm 2 m/s 687 mmHg 29%
    16:00 +23°C° 0 mm 2 m/s 687 mmHg 35%
    17:00 +20°C° 0 mm 2 m/s 687 mmHg 42%
    18:00 +17°C° 0 mm 2 m/s 687 mmHg 48%
    19:00 +17°C° 0 mm 2 m/s 687 mmHg 45%
    20:00 +17°C° 0 mm 2 m/s 688 mmHg 42%
    21:00 +17°C° 0 mm 2 m/s 688 mmHg 39%
    22:00 +17°C° 0 mm 2 m/s 688 mmHg 38%
    23:00 +17°C° 0 mm 2 m/s 688 mmHg 37%

    20 Dezembro, Quarta-feira

    Tempo Temperatura Precipitação Vento Pressão Humidade
    00:00 +16°C° 0 mm 2 m/s 688 mmHg 36%
    01:00 +16°C° 0 mm 2 m/s 687 mmHg 35%
    02:00 +16°C° 0 mm 1 m/s 687 mmHg 34%
    03:00 +16°C° 0 mm 1 m/s 687 mmHg 34%
    04:00 +16°C° 0 mm 1 m/s 687 mmHg 33%
    05:00 +16°C° 0 mm 1 m/s 687 mmHg 32%
    06:00 +16°C° 0 mm 1 m/s 687 mmHg 32%
    07:00 +18°C° 0 mm 1 m/s 688 mmHg 31%
    08:00 +20°C° 0 mm 1 m/s 689 mmHg 30%
    09:00 +21°C° 0 mm 1 m/s 690 mmHg 28%
    10:00 +22°C° 0 mm 1 m/s 689 mmHg 29%
    11:00 +24°C° 0 mm 2 m/s 689 mmHg 29%
    12:00 +25°C° 0 mm 2 m/s 689 mmHg 29%
    13:00 +25°C° 0 mm 2 m/s 689 mmHg 32%
    14:00 +25°C° 0 mm 2 m/s 688 mmHg 34%
    15:00 +25°C° 0 mm 2 m/s 688 mmHg 36%
    16:00 +23°C° 0 mm 2 m/s 688 mmHg 43%
    17:00 +21°C° 0 mm 1 m/s 687 mmHg 49%
    18:00 +19°C° 0 mm 1 m/s 687 mmHg 56%
    19:00 +18°C° 0 mm 1 m/s 688 mmHg 55%
    20:00 +18°C° 0 mm 1 m/s 688 mmHg 55%
    21:00 +18°C° 0 mm 1 m/s 689 mmHg 54%
    22:00 +18°C° 0 mm 1 m/s 689 mmHg 53%
    23:00 +18°C° 0 mm 1 m/s 688 mmHg 51%

    21 Dezembro, Quinta-feira

    Tempo Temperatura Precipitação Vento Pressão Humidade
    00:00 +18°C° 0 mm 1 m/s 688 mmHg 50%
    01:00 +18°C° 0 mm 1 m/s 688 mmHg 48%
    02:00 +18°C° 0 mm 1 m/s 687 mmHg 47%
    03:00 +16°C° 0 mm 1 m/s 687 mmHg 46%
    04:00 +16°C° 0 mm 1 m/s 687 mmHg 45%
    05:00 +16°C° 0 mm 1 m/s 687 mmHg 44%
    06:00 +16°C° 0 mm 1 m/s 687 mmHg 43%
    07:00 +18°C° 0 mm 1 m/s 688 mmHg 40%
    08:00 +20°C° 0 mm 1 m/s 689 mmHg 38%
    09:00 +21°C° 0 mm 1 m/s 690 mmHg 35%
    10:00 +23°C° 0 mm 1 m/s 689 mmHg 33%
    11:00 +24°C° 0 mm 2 m/s 689 mmHg 32%
    12:00 +25°C° 0 mm 2 m/s 689 mmHg 30%
    13:00 +25°C° 0 mm 2 m/s 688 mmHg 32%
    14:00 +25°C° 0 mm 2 m/s 688 mmHg 34%
    15:00 +25°C° 0 mm 2 m/s 687 mmHg 36%
    16:00 +23°C° 0 mm 2 m/s 687 mmHg 45%
    17:00 +19°C° 0 mm 2 m/s 686 mmHg 53%
    18:00 +18°C° 0 mm 1 m/s 686 mmHg 61%
    19:00 +18°C° 0 mm 1 m/s 686 mmHg 59%
    20:00 +16°C° 0 mm 2 m/s 687 mmHg 57%
    21:00 +16°C° 0 mm 2 m/s 687 mmHg 55%
    22:00 +16°C° 0 mm 2 m/s 687 mmHg 52%
    23:00 +16°C° 0 mm 2 m/s 687 mmHg 50%

    22 Dezembro, Sexta-feira

    Tempo Temperatura Precipitação Vento Pressão Humidade
    00:00 +16°C° 0 mm 2 m/s 686 mmHg 48%
    01:00 +16°C° 0 mm 2 m/s 686 mmHg 45%
    02:00 +16°C° 0 mm 2 m/s 686 mmHg 42%
    03:00 +16°C° 0 mm 2 m/s 686 mmHg 40%
    04:00 +16°C° 0 mm 2 m/s 685 mmHg 37%
    05:00 +16°C° 0 mm 2 m/s 685 mmHg 35%
    06:00 +16°C° 0 mm 1 m/s 685 mmHg 32%
    07:00 +18°C° 0 mm 1 m/s 686 mmHg 30%
    08:00 +20°C° 0 mm 1 m/s 687 mmHg 28%
    09:00 +21°C° 0 mm 1 m/s 687 mmHg 25%
    10:00 +22°C° 0 mm 1 m/s 687 mmHg 24%
    11:00 +24°C° 0 mm 2 m/s 687 mmHg 24%
    12:00 +25°C° 0 mm 2 m/s 687 mmHg 23%
    13:00 +25°C° 0 mm 2 m/s 686 mmHg 25%
    14:00 +25°C° 0 mm 2 m/s 685 mmHg 28%
    15:00 +25°C° 0 mm 2 m/s 685 mmHg 30%
    16:00 +23°C° 0 mm 2 m/s 684 mmHg 38%
    17:00 +20°C° 0 mm 1 m/s 684 mmHg 46%
    18:00 +18°C° 0 mm 1 m/s 684 mmHg 54%
    19:00 +18°C° 0 mm 1 m/s 685 mmHg 52%
    20:00 +18°C° 0 mm 1 m/s 685 mmHg 50%
    21:00 +16°C° 0 mm 2 m/s 685 mmHg 48%
    22:00 +16°C° 0 mm 2 m/s 685 mmHg 46%
    23:00 +16°C° 0 mm 2 m/s 685 mmHg 43%
    Mostrar mais